Theta_e
313 314 315 317 317 318 319 319 319 319 318 319 319 320 322 321 321 321 320 321 320 320 319 317 317 317 314 312 311 312 311 309 305 290 290 290 289 288 289 289 289 289 288
308 310 311 312 313 314 317 317 318 320 320 322 321 321 321 321 321 320 319 315 317 316 314 311 313 309 309 307 306 305 302 299 297 289 288 287 287 288 288 287 287 288 287
301 303 302 303 305 306 307 308 313 315 317 317 317 316 316 315 315 313 311 310 310 310 309 308 308 305 302 301 300 297 295 293 293 290 286 287 286 287 285 286 286 286 286
297 296 296 297 299 299 299 303 305 306 306 307 306 306 305 306 305 303 304 305 305 304 302 302 302 301 301 298 295 293 291 290 290 288 286 285 285 285 285 284 283 284 282
297 296 295 295 295 295 294 298 300 300 300 299 300 300 300 300 297 299 299 301 301 299 296 296 295 293 294 295 293 291 291 288 287 286 285 284 284 283 283 282 281 281 281
296 294 294 294 293 292 292 291 291 291 294 295 294 294 295 293 296 296 296 297 296 293 292 290 290 288 291 293 293 293 291 288 286 286 285 284 283 282 282 283 283 277 275
294 292 292 291 290 290 289 290 289 289 290 290 291 292 291 292 295 294 292 292 291 291 289 288 288 288 288 289 291 291 289 291 290 287 285 284 284 285 284 283 279 278 278
291 290 289 289 288 288 289 289 289 291 290 289 289 289 289 290 293 292 290 289 289 289 289 289 288 288 288 287 287 286 286 286 286 286 286 286 286 285 285 284 281 277 277
289 289 288 288 287 288 287 287 287 288 286 286 286 287 287 287 292 291 289 287 287 286 286 287 287 287 289 290 286 285 285 285 288 289 288 288 288 288 284 279 273 273 272
289 288 288 288 287 287 286 285 285 286 286 286 286 286 286 287 291 290 288 286 286 284 285 285 286 285 289 289 286 285 284 284 284 284 282 284 286 285 286 281 277 269 267
287 287 286 287 288 288 284 285 286 286 286 286 285 285 286 286 288 290 290 286 285 285 284 283 284 288 290 290 287 285 284 282 279 275 276 276 278 278 277 277 277 275 267
286 287 287 287 286 287 287 286 286 286 286 285 285 284 284 285 287 290 289 289 288 285 284 283 284 288 288 289 285 288 288 284 275 273 272 274 274 273 274 274 274 276 276
287 287 287 286 286 286 286 286 286 286 286 285 285 284 283 283 285 288 290 289 287 282 282 285 287 287 288 287 288 288 283 284 282 280 280 278 276 276 271 269 269 268 268
286 286 286 286 285 286 286 286 286 286 285 285 285 284 283 283 283 284 285 284 283 280 281 279 285 285 284 282 277 281 278 276 281 281 281 278 276 275 275 274 269 269 267
285 284 285 285 285 283 283 284 283 283 285 285 284 283 283 282 282 285 282 276 275 282 272 273 279 279 278 279 278 278 276 272 275 279 278 278 277 275 273 269 268 267 269
282 282 283 282 282 282 282 282 287 287 287 287 285 281 274 284 287 287 288 287 287 286 280 281 280 279 278 278 278 278 277 276 269 268 269 271 274 273 273 270 270 270 270
282 279 279 279 280 279 279 278 279 282 285 285 286 286 286 285 286 286 286 287 287 284 281 281 280 280 279 278 278 277 276 271 266 266 267 270 271 271 271 271 270 268 267
277 276 277 275 274 273 274 272 275 275 273 267 278 281 284 283 283 284 283 279 272 275 274 276 278 278 278 278 277 276 274 272 267 268 268 268 267 268 269 266 266 267 268
276 274 274 272 272 272 272 271 271 270 268 266 265 272 268 279 279 278 276 265 263 266 265 266 265 265 265 264 265 264 264 265 267 266 264 264 263 262 264 264 267 268 268
273 273 274 273 272 271 271 270 269 268 267 266 264 260 258 262 259 259 261 257 257 256 256 257 256 256 257 257 258 258 258 259 260 259 259 259 261 261 266 265 265 266 265
274 272 271 271 270 270 269 268 267 266 264 262 259 265 268 259 254 253 252 251 252 252 253 252 252 252 253 253 252 253 254 255 255 257 259 259 261 264 263 265 265 266 264
273 271 270 269 267 265 264 264 264 263 261 261 255 263 267 255 253 251 250 250 249 249 250 250 250 250 250 251 251 251 252 253 255 254 255 256 258 258 257 259 258 259 260
270 268 266 264 264 263 262 262 262 260 258 256 256 255 252 250 250 250 250 248 249 249 248 248 249 250 250 249 248 250 251 253 255 254 256 256 256 255 255 257 258 260 258
269 267 265 264 263 262 261 260 260 258 257 255 254 254 255 252 250 250 249 249 250 249 248 248 248 249 248 249 248 248 248 251 250 253 252 253 256 256 254 254 254 256 259
266 265 264 263 262 260 259 258 258 258 257 257 254 252 250 251 250 249 248 247 248 249 249 248 248 248 248 249 251 252 253 257 256 256 250 252 256 254 253 254 255 255 251
263 262 261 260 260 260 259 258 257 257 257 257 254 251 250 250 250 249 250 250 250 250 250 249 249 249 250 250 252 255 258 263 261 261 261 257 254 252 249 250 252 253 254
Wind_Speed
8 8 8 9 9 9 9 9 10 8 7 8 9 10 11 10 10 9 10 9 9 10 9 10 10 8 5 4 5 5 7 5 4 2 2 4 3 7 4 2 2 3 3
6 6 7 6 6 6 7 5 5 8 7 9 8 8 8 8 7 8 8 5 8 7 6 5 7 2 4 2 3 4 2 3 2 5 2 2 3 3 3 5 4 5 5
5 6 5 5 5 4 3 1 1 2 3 4 4 5 5 5 4 1 2 2 3 4 4 4 5 3 3 2 1 3 3 2 4 4 3 2 1 2 2 3 4 5 3
6 6 7 6 6 5 5 5 5 5 5 4 5 5 6 5 4 3 1 1 1 1 2 1 2 4 4 5 4 4 5 5 4 5 3 2 2 2 1 3 4 2 3
7 6 6 6 6 6 6 5 5 5 5 5 5 5 5 5 3 2 0 1 2 1 1 3 2 1 7 8 7 7 6 4 5 3 3 2 2 2 3 2 2 1 2
7 7 7 7 7 6 6 6 7 6 5 5 5 4 4 3 6 7 4 1 2 0 1 5 5 6 6 6 7 6 4 4 3 3 3 1 2 3 2 3 3 2 3
7 7 7 6 7 6 6 6 6 6 5 5 5 4 5 4 6 5 6 4 5 4 4 4 4 3 6 6 9 11 8 9 5 4 3 1 2 4 3 2 2 3 3
7 7 7 7 7 6 6 6 6 5 5 4 4 5 5 4 7 7 8 6 6 5 5 5 5 5 4 6 6 6 5 5 4 3 4 5 5 3 4 3 3 2 1
7 7 7 7 7 6 5 6 5 5 4 4 4 5 5 5 8 8 7 6 6 6 4 4 4 5 6 8 6 5 4 2 3 4 3 3 2 3 6 3 0 3 2
8 8 7 7 7 6 6 6 3 4 5 4 6 6 5 5 9 9 7 3 5 3 4 4 5 4 5 5 4 3 4 2 2 2 3 4 2 2 8 2 3 2 2
7 8 7 6 6 6 5 4 5 7 7 6 7 5 5 5 6 9 8 3 3 3 3 2 3 6 4 6 7 4 3 3 4 2 1 1 1 2 2 2 4 4 3
8 9 7 7 5 5 9 6 7 6 7 5 6 5 3 3 5 8 8 6 5 3 3 2 2 5 4 4 3 2 1 4 2 3 3 2 2 3 3 3 3 4 3
9 8 7 7 6 6 8 7 6 4 4 4 4 4 3 3 4 11 11 12 12 5 2 6 7 6 5 4 5 6 3 0 1 1 4 3 3 2 2 2 3 3 3
11 9 8 9 7 6 5 4 4 3 4 4 4 5 4 3 3 2 3 4 8 6 6 4 8 10 12 8 5 6 4 3 2 3 6 1 1 2 3 2 2 1 1
11 9 8 8 8 8 7 5 5 3 4 5 5 3 5 4 2 3 5 2 2 4 5 4 6 6 6 6 6 5 4 4 4 4 3 4 3 2 3 0 1 0 3
12 8 7 7 7 7 9 10 17 16 18 17 15 9 1 7 9 8 8 7 7 7 3 4 3 2 2 2 1 2 2 3 2 1 2 2 5 5 5 2 2 2 6
13 10 7 8 7 8 7 9 11 13 19 18 18 15 14 10 10 9 9 9 7 5 3 3 3 3 2 1 1 0 2 2 2 2 2 3 3 2 4 4 3 2 4
11 11 9 7 7 6 6 6 7 8 6 2 12 12 16 15 14 12 13 12 5 6 3 3 3 4 4 5 4 5 5 4 2 3 2 2 2 2 4 3 3 4 6
11 8 9 7 6 7 7 7 6 6 6 4 3 9 8 15 16 17 17 4 3 4 4 5 4 4 3 3 3 3 3 3 4 4 4 3 3 1 3 3 4 6 7
10 16 11 9 8 8 6 7 6 6 6 6 5 2 3 5 5 4 5 3 3 2 2 3 3 3 2 2 3 3 3 3 3 3 3 3 4 2 4 3 3 5 4
10 10 11 8 7 7 6 6 6 7 7 6 3 3 9 5 4 3 2 2 2 2 1 1 2 2 3 3 2 2 3 3 2 3 3 3 3 5 3 3 5 5 4
11 10 9 9 7 6 6 6 7 8 7 7 3 5 13 5 4 3 2 2 1 2 2 0 1 1 1 2 2 2 3 3 4 3 3 3 4 3 3 3 3 2 3
10 11 10 7 7 9 6 5 7 7 7 6 5 4 3 3 3 3 1 1 1 2 2 2 2 3 3 2 1 1 2 3 4 2 3 3 4 4 3 3 3 4 3
10 11 11 9 7 6 7 6 6 7 7 6 5 4 4 3 3 2 1 1 1 2 1 1 1 3 4 4 3 3 3 4 3 4 3 3 4 4 2 3 3 3 4
9 10 10 9 8 7 8 6 6 6 6 5 4 3 2 3 3 2 1 1 1 1 3 3 2 4 4 6 6 7 7 8 6 6 2 3 5 5 3 2 3 3 2
8 9 8 7 7 7 7 7 6 5 6 5 4 4 3 3 2 2 1 1 2 2 4 3 4 6 6 5 7 9 8 9 8 9 5 3 3 3 2 3 5 2 3
Wind_Direction
179 177 174 187 192 192 200 207 210 208 198 203 205 213 221 222 224 221 227 232 230 232 228 232 240 244 238 227 224 240 247 243 221 108 45 82 121 139 145 207 196 207 228
176 173 185 168 172 186 203 204 192 210 207 213 215 223 226 222 214 220 231 214 231 239 232 228 251 259 269 225 199 225 113 56 90 108 74 85 84 69 127 153 233 211 202
161 158 152 162 169 188 180 141 158 233 233 228 226 225 228 231 230 222 10 330 320 299 291 262 259 207 226 186 87 116 110 105 109 128 126 98 70 141 180 206 208 237 217
143 142 139 134 129 121 102 89 74 55 53 48 41 37 43 43 53 67 83 188 209 201 276 218 260 216 214 159 140 135 135 121 121 113 77 101 135 123 112 182 243 224 249
127 121 122 115 111 113 111 104 87 72 62 53 55 52 53 58 33 339 176 210 90 105 22 68 42 130 168 168 153 161 151 119 115 102 107 118 131 149 213 194 204 240 261
133 133 130 123 121 114 104 98 93 84 72 69 65 67 59 47 21 27 23 63 83 76 52 35 45 49 61 80 74 87 137 120 98 74 50 78 185 170 200 191 201 128 285
135 133 130 125 118 117 120 118 112 99 94 77 62 62 61 53 53 70 84 84 82 67 88 96 70 67 84 88 88 87 81 80 101 137 136 132 67 209 204 237 185 171 212
141 136 130 129 129 138 124 113 100 85 89 105 100 91 87 48 63 80 88 98 95 91 100 112 116 114 103 111 99 102 103 87 91 116 152 156 195 194 205 210 185 158 19
147 144 145 141 136 134 129 114 95 101 86 68 58 64 74 57 57 62 65 62 71 65 59 68 110 118 132 132 124 132 120 125 72 81 47 32 20 247 179 116 21 94 304
155 149 145 145 136 147 136 113 89 84 98 88 76 65 62 70 58 69 87 89 92 92 72 66 64 83 126 111 101 109 79 32 24 10 18 19 24 237 193 204 149 147 143
133 138 134 135 142 134 113 94 114 112 104 97 93 80 75 78 70 72 72 77 114 112 78 55 36 75 101 85 63 56 72 69 12 81 90 41 352 317 271 214 189 160 171
135 134 135 130 128 127 118 115 111 111 111 113 110 90 56 52 81 79 87 91 86 74 61 64 92 96 89 85 88 84 63 84 67 28 4 344 303 279 273 255 235 230 237
131 136 122 111 111 119 115 112 100 108 119 110 114 114 83 35 40 46 51 63 63 74 85 90 82 71 68 71 39 23 33 201 276 287 308 279 232 239 277 315 283 253 259
135 133 124 118 112 91 85 82 99 100 106 105 84 86 71 44 44 50 52 63 63 60 56 42 49 49 42 38 34 24 16 352 323 297 305 237 246 247 268 214 255 288 288
127 122 119 119 113 97 75 87 94 65 86 105 91 91 100 71 7 115 125 105 102 107 93 52 37 28 29 22 21 17 9 353 346 324 310 298 283 274 295 288 260 240 251
128 133 136 128 116 116 115 97 79 87 92 94 104 111 94 107 80 79 94 102 103 105 69 75 57 55 48 17 11 337 2 337 297 294 301 305 303 304 304 294 255 249 284
132 136 138 123 126 131 130 121 113 81 82 83 88 89 87 88 74 69 68 85 81 96 34 33 46 43 15 18 305 278 296 324 8 293 253 268 269 275 298 300 289 251 276
123 126 124 113 122 130 131 123 130 139 124 63 54 73 79 75 63 57 64 56 30 25 47 52 28 21 17 9 9 13 6 348 322 298 288 265 269 265 302 291 280 286 295
125 121 108 112 125 125 122 115 120 114 116 126 73 67 43 77 68 64 59 70 70 43 27 51 29 22 20 13 351 346 342 334 339 334 326 320 310 304 296 271 283 289 295
120 124 128 133 129 117 117 122 123 119 105 94 75 72 353 43 46 28 43 65 70 61 44 47 9 12 12 11 356 355 350 343 341 341 324 316 304 293 297 298 295 309 307
127 120 122 115 123 127 137 137 127 115 109 95 98 97 95 107 99 90 83 62 85 64 29 36 322 353 3 8 354 350 344 325 323 328 334 327 330 331 312 305 308 306 302
126 128 128 127 122 115 125 134 129 119 121 118 88 70 93 86 96 94 65 40 318 246 235 176 344 343 318 344 333 347 329 324 329 327 312 311 310 311 313 301 300 297 303
121 122 116 109 116 125 122 124 117 114 114 113 116 102 73 89 113 120 115 282 315 342 349 21 11 346 336 313 281 213 273 286 278 269 297 305 314 309 303 302 302 315 305
128 129 127 126 131 127 123 119 116 110 115 119 125 128 122 119 130 144 177 297 354 341 339 335 280 279 295 304 297 286 259 269 252 259 252 260 283 291 291 290 286 294 303
127 126 128 134 136 129 125 125 126 126 128 133 129 122 144 150 143 167 232 281 290 297 289 275 255 265 278 300 304 309 299 302 290 272 249 238 261 268 263 258 271 288 294
116 115 115 118 123 127 129 131 137 140 139 139 142 147 150 150 166 188 199 265 299 299 292 264 272 283 287 277 281 285 278 294 290 271 263 219 228 267 262 267 285 262 273